Location: Tamazert
(32.6352°N, 5.2072°W)
Time: 02:40:54
(UTC+00:00)

Tiros 1 despin weight - Pass Details

Date: 07 October 2022
Orbit: 590 x 637 km, 48.2° (Epoch: 30 November)

Event Time Altitude Azimuth Distance (km) Brightness Sun altitude
Rises 19:35:58 0° 316° (NW) 2,879 ? -21.4°
Reaches altitude 10° 19:38:34 10° 329° (NNW) 1,981 ? -22.0°
Enters shadow 19:42:05 26° 20° (NNE) 1,220 ? -22.7°
Maximum altitude 19:42:26 27° 28° (NNE) 1,213 - -22.8°
Drops below altitude 10° 19:46:20 10° 86° (E) 2,001 - -23.6°
Sets 19:48:58 0° 98° (E) 2,913 - -24.2°
